Location: Coupvray
(48.8929°N, 2.7967°E)
Time: 10:58:25
(UTC+00:00)

NPP - Pass Details

Date: 14 July 2020
Orbit: 826 x 828 km, 98.7° (Epoch: 05 August)

Event Time Altitude Azimuth Distance (km) Brightness Sun altitude
Rises 01:17:39 0° 18° (NNE) 3,378 8.6 -17.1°
Reaches altitude 10° 01:20:04 10° 23° (NNE) 2,440 7.4 -17.0°
Maximum altitude 01:25:22 54° 101° (E) 1,000 4.1 -16.6°
Enters shadow 01:28:50 21° 171° (S) 1,771 4.9 -16.4°
